Location: Unspecified
(34.9968°N, 0.0000°E)
Time: 03:44:52
(UTC+00:00)

CZ-6A DEB - Visible Passes

Search period start: 04 April 2026 00:00
Search period end: 14 April 2026 00:00
Orbit: 795 x 856 km, 98.8° (Epoch: 28 March)

Date Brightness Start Highest point End Pass type
(mag) Time Alt. Az. Time Alt. Az. Time Alt. Az.
5 Apr ? 18:57:54 10° WSW 19:00:21 13° W 19:02:49 10° WNW visible
8 Apr ? 04:59:28 10° ENE 05:01:56 13° E 05:04:24 10° ESE visible
10 Apr ? 19:01:54 10° WSW 19:03:50 12° W 19:05:45 10° WNW visible
13 Apr ? 05:02:30 10° ENE 05:05:19 15° E 05:08:08 10° SE visible
